FDX25 TNCA-TNCB

Flight info

Callsign FDX25
Flight time 0h 48m
Altitude 9000
Route ADRIV1F ADRIV A574 PJG DCT IMOMA
Aircraft C208/L-SDFGR/C

Departure

Time 2026-05-07 23:51
Airport Queen Beatrix International Airport (TNCA)

Arrival

Time 2026-05-08 00:40
Airport Flamingo International Airport (TNCB)
Time Latitude Longitude Altitude Speed Heading
2026-05-07 23:28 12.50422 -70.01313 37 ft 0 kts 10°
2026-05-07 23:42 12.50423 -70.01313 37 ft 0 kts 10°
2026-05-07 23:43 12.50424 -70.01320 37 ft 0 kts 216°
2026-05-07 23:44 12.50423 -70.01320 37 ft 1 kts 216°
2026-05-07 23:44 12.50402 -70.01335 37 ft 8 kts 214°
2026-05-07 23:44 12.50395 -70.01340 37 ft 0 kts 213°
2026-05-07 23:45 12.50385 -70.01347 37 ft 6 kts 213°
2026-05-07 23:45 12.50326 -70.01407 36 ft 18 kts 238°
2026-05-07 23:45 12.50331 -70.01571 33 ft 29 kts 283°
2026-05-07 23:46 12.50379 -70.01778 29 ft 26 kts 282°
2026-05-07 23:46 12.50412 -70.01918 26 ft 16 kts 284°
2026-05-07 23:46 12.50438 -70.02023 24 ft 16 kts 284°
2026-05-07 23:46 12.50464 -70.02135 22 ft 17 kts 283°
2026-05-07 23:47 12.50493 -70.02256 20 ft 18 kts 283°
2026-05-07 23:47 12.50524 -70.02385 18 ft 19 kts 285°
2026-05-07 23:47 12.50555 -70.02517 15 ft 19 kts 285°
2026-05-07 23:47 12.50577 -70.02635 13 ft 13 kts 263°
2026-05-07 23:48 12.50540 -70.02704 13 ft 10 kts 219°
2026-05-07 23:48 12.50491 -70.02724 13 ft 6 kts 189°
2026-05-07 23:48 12.50444 -70.02720 13 ft 10 kts 159°
2026-05-07 23:48 12.50416 -70.02686 14 ft 0 kts 102°
2026-05-07 23:50 12.50413 -70.02672 14 ft 7 kts 103°
2026-05-07 23:50 12.50381 -70.02537 15 ft 36 kts 104°
2026-05-07 23:51 12.50291 -70.02162 21 ft 70 kts 103°
2026-05-07 23:51 12.50154 -70.01631 140 ft 80 kts 101°
2026-05-07 23:51 12.50002 -70.01083 325 ft 84 kts 103°
2026-05-07 23:51 12.49845 -70.00526 670 ft 74 kts 97°
2026-05-07 23:52 12.49798 -70.00052 900 ft 70 kts 91°
2026-05-07 23:52 12.49681 -69.99558 1116 ft 72 kts 94°
2026-05-07 23:52 12.49566 -69.99062 1297 ft 71 kts 97°
2026-05-07 23:52 12.49450 -69.98572 1495 ft 72 kts 98°
2026-05-07 23:53 12.49328 -69.98061 1718 ft 76 kts 100°
2026-05-07 23:53 12.49200 -69.97527 1951 ft 79 kts 101°
2026-05-07 23:53 12.49066 -69.96966 2177 ft 84 kts 99°
2026-05-07 23:53 12.48922 -69.96375 2403 ft 87 kts 101°
2026-05-07 23:54 12.48827 -69.95981 2542 ft 84 kts 101°
2026-05-07 23:54 12.48696 -69.95416 2748 ft 81 kts 103°
2026-05-07 23:54 12.48560 -69.94856 2962 ft 82 kts 103°
2026-05-07 23:54 12.48421 -69.94291 3149 ft 81 kts 102°
2026-05-07 23:55 12.48291 -69.93736 3327 ft 78 kts 101°
2026-05-07 23:55 12.48170 -69.93210 3506 ft 76 kts 100°
2026-05-07 23:55 12.48040 -69.92665 3690 ft 81 kts 101°
2026-05-07 23:55 12.47902 -69.92093 3898 ft 84 kts 101°
2026-05-07 23:56 12.47759 -69.91501 4113 ft 86 kts 101°
2026-05-07 23:56 12.47615 -69.90903 4317 ft 87 kts 101°
2026-05-07 23:56 12.47469 -69.90301 4517 ft 86 kts 100°
2026-05-07 23:56 12.47334 -69.89730 4707 ft 82 kts 100°
2026-05-07 23:57 12.47204 -69.89171 4879 ft 81 kts 101°
2026-05-07 23:57 12.47064 -69.88593 5074 ft 86 kts 101°
2026-05-07 23:57 12.46916 -69.87977 5257 ft 91 kts 102°
2026-05-07 23:57 12.46765 -69.87350 5428 ft 91 kts 101°
2026-05-07 23:58 12.46616 -69.86724 5605 ft 90 kts 101°
2026-05-07 23:58 12.46468 -69.86104 5769 ft 90 kts 101°
2026-05-07 23:58 12.46319 -69.85488 5951 ft 88 kts 102°
2026-05-07 23:58 12.46174 -69.84880 6125 ft 88 kts 103°
2026-05-07 23:59 12.46030 -69.84273 6287 ft 88 kts 103°
2026-05-07 23:59 12.45884 -69.83665 6451 ft 88 kts 103°
2026-05-07 23:59 12.45734 -69.83039 6574 ft 93 kts 103°
2026-05-07 23:59 12.45575 -69.82372 6693 ft 99 kts 103°
2026-05-08 00:00 12.45377 -69.81696 6838 ft 102 kts 105°
2026-05-08 00:00 12.45189 -69.80987 6973 ft 104 kts 105°
2026-05-08 00:00 12.44991 -69.80265 7114 ft 106 kts 105°
2026-05-08 00:00 12.44791 -69.79532 7251 ft 108 kts 104°
2026-05-08 00:01 12.44585 -69.78779 7374 ft 112 kts 104°
2026-05-08 00:01 12.44371 -69.78007 7505 ft 114 kts 105°
2026-05-08 00:01 12.44155 -69.77217 7625 ft 117 kts 105°
2026-05-08 00:01 12.43930 -69.76407 7754 ft 120 kts 105°
2026-05-08 00:02 12.43701 -69.75582 7891 ft 121 kts 105°
2026-05-08 00:02 12.43472 -69.74747 8020 ft 123 kts 105°
2026-05-08 00:02 12.43236 -69.73904 8153 ft 123 kts 105°
2026-05-08 00:02 12.43004 -69.73057 8279 ft 125 kts 105°
2026-05-08 00:03 12.42767 -69.72197 8403 ft 126 kts 105°
2026-05-08 00:03 12.42527 -69.71327 8523 ft 128 kts 105°
2026-05-08 00:03 12.42284 -69.70441 8644 ft 130 kts 105°
2026-05-08 00:03 12.42037 -69.69555 8777 ft 129 kts 105°
2026-05-08 00:04 12.41796 -69.68676 8904 ft 130 kts 105°
2026-05-08 00:04 12.41549 -69.67791 8987 ft 132 kts 105°
2026-05-08 00:04 12.41291 -69.66862 8999 ft 139 kts 106°
2026-05-08 00:04 12.41022 -69.65891 9009 ft 144 kts 106°
2026-05-08 00:05 12.40744 -69.64890 8999 ft 148 kts 105°
2026-05-08 00:05 12.40462 -69.63864 8998 ft 152 kts 105°
2026-05-08 00:05 12.40177 -69.62819 9003 ft 152 kts 105°
2026-05-08 00:05 12.39888 -69.61771 9001 ft 153 kts 105°
2026-05-08 00:06 12.39598 -69.60727 9002 ft 152 kts 105°
2026-05-08 00:06 12.39268 -69.59698 8999 ft 153 kts 109°
2026-05-08 00:06 12.38923 -69.58676 9002 ft 153 kts 108°
2026-05-08 00:06 12.38580 -69.57638 8995 ft 155 kts 108°
2026-05-08 00:07 12.38227 -69.56591 8998 ft 157 kts 108°
2026-05-08 00:07 12.37871 -69.55537 8999 ft 156 kts 108°
2026-05-08 00:07 12.37519 -69.54488 8995 ft 155 kts 108°
2026-05-08 00:07 12.37172 -69.53459 8995 ft 149 kts 108°
2026-05-08 00:08 12.36844 -69.52477 8984 ft 144 kts 108°
2026-05-08 00:08 12.36523 -69.51518 8986 ft 140 kts 108°
2026-05-08 00:08 12.36211 -69.50586 8985 ft 138 kts 108°
2026-05-08 00:08 12.35899 -69.49659 8986 ft 137 kts 108°
2026-05-08 00:09 12.35589 -69.48744 8991 ft 135 kts 108°
2026-05-08 00:09 12.35288 -69.47849 8982 ft 135 kts 108°
2026-05-08 00:09 12.34986 -69.46954 8991 ft 132 kts 108°
2026-05-08 00:09 12.34687 -69.46063 8983 ft 132 kts 108°
2026-05-08 00:10 12.34387 -69.45172 8996 ft 132 kts 108°
2026-05-08 00:10 12.34087 -69.44283 8995 ft 132 kts 108°
2026-05-08 00:10 12.33786 -69.43389 8987 ft 134 kts 108°
2026-05-08 00:10 12.33480 -69.42485 8998 ft 134 kts 108°
2026-05-08 00:11 12.33177 -69.41590 8995 ft 133 kts 108°
2026-05-08 00:11 12.32874 -69.40693 9001 ft 132 kts 108°
2026-05-08 00:11 12.32574 -69.39810 9005 ft 131 kts 108°
2026-05-08 00:11 12.32282 -69.38938 9005 ft 132 kts 108°
2026-05-08 00:12 12.31979 -69.38045 9011 ft 134 kts 108°
2026-05-08 00:12 12.31670 -69.37127 9006 ft 138 kts 109°
2026-05-08 00:12 12.31351 -69.36190 9007 ft 141 kts 108°
2026-05-08 00:12 12.31035 -69.35237 9005 ft 142 kts 108°
2026-05-08 00:13 12.30719 -69.34280 9006 ft 142 kts 108°
2026-05-08 00:13 12.30401 -69.33325 9012 ft 141 kts 108°
2026-05-08 00:13 12.30085 -69.32376 9007 ft 141 kts 108°
2026-05-08 00:13 12.29769 -69.31420 9006 ft 142 kts 109°
2026-05-08 00:14 12.29451 -69.30464 9006 ft 143 kts 108°
2026-05-08 00:14 12.29129 -69.29492 9002 ft 145 kts 109°
2026-05-08 00:14 12.28802 -69.28515 9011 ft 144 kts 108°
2026-05-08 00:14 12.28480 -69.27543 9007 ft 145 kts 108°
2026-05-08 00:15 12.28156 -69.26569 9004 ft 144 kts 108°
2026-05-08 00:15 12.27838 -69.25614 9013 ft 143 kts 108°
2026-05-08 00:15 12.27517 -69.24646 9009 ft 144 kts 108°
2026-05-08 00:15 12.27194 -69.23675 9005 ft 144 kts 108°
2026-05-08 00:16 12.26871 -69.22702 8999 ft 145 kts 109°
2026-05-08 00:16 12.26545 -69.21722 9002 ft 146 kts 109°
2026-05-08 00:16 12.26219 -69.20744 9010 ft 145 kts 109°
2026-05-08 00:16 12.25894 -69.19770 9011 ft 144 kts 109°
2026-05-08 00:17 12.25574 -69.18805 9009 ft 143 kts 109°
2026-05-08 00:17 12.25253 -69.17838 9009 ft 144 kts 109°
2026-05-08 00:17 12.24929 -69.16871 9006 ft 144 kts 109°
2026-05-08 00:17 12.24606 -69.15893 9003 ft 145 kts 109°
2026-05-08 00:18 12.24279 -69.14914 9004 ft 146 kts 109°
2026-05-08 00:18 12.23957 -69.13947 9000 ft 145 kts 109°
2026-05-08 00:18 12.23632 -69.12973 9004 ft 144 kts 109°
2026-05-08 00:18 12.23310 -69.12006 9006 ft 143 kts 109°
2026-05-08 00:19 12.22991 -69.11045 8998 ft 143 kts 109°
2026-05-08 00:19 12.22669 -69.10083 9011 ft 143 kts 109°
2026-05-08 00:19 12.22349 -69.09116 9003 ft 144 kts 108°
2026-05-08 00:19 12.22024 -69.08140 8994 ft 145 kts 109°
2026-05-08 00:20 12.21698 -69.07166 9007 ft 145 kts 109°
2026-05-08 00:20 12.21372 -69.06189 9006 ft 146 kts 109°
2026-05-08 00:20 12.21044 -69.05206 9001 ft 146 kts 109°
2026-05-08 00:20 12.20716 -69.04224 9005 ft 146 kts 109°
2026-05-08 00:21 12.20390 -69.03235 9012 ft 146 kts 109°
2026-05-08 00:21 12.20057 -69.02247 9010 ft 148 kts 109°
2026-05-08 00:21 12.19732 -69.01257 9006 ft 150 kts 107°
2026-05-08 00:21 12.19582 -69.00200 8914 ft 154 kts 97°
2026-05-08 00:22 12.19471 -68.99093 8777 ft 158 kts 98°
2026-05-08 00:22 12.19346 -68.97975 8667 ft 159 kts 98°
2026-05-08 00:22 12.19223 -68.96837 8551 ft 163 kts 98°
2026-05-08 00:22 12.19094 -68.95678 8435 ft 166 kts 98°
2026-05-08 00:23 12.18965 -68.94508 8313 ft 165 kts 98°
2026-05-08 00:23 12.18836 -68.93347 8193 ft 164 kts 97°
2026-05-08 00:23 12.18710 -68.92187 8077 ft 163 kts 97°
2026-05-08 00:23 12.18583 -68.91040 7952 ft 162 kts 98°
2026-05-08 00:24 12.18458 -68.89912 7834 ft 162 kts 98°
2026-05-08 00:24 12.18332 -68.88766 7712 ft 163 kts 97°
2026-05-08 00:24 12.18203 -68.87613 7597 ft 162 kts 97°
2026-05-08 00:24 12.18078 -68.86471 7478 ft 161 kts 97°
2026-05-08 00:25 12.17953 -68.85338 7359 ft 160 kts 98°
2026-05-08 00:25 12.17827 -68.84210 7241 ft 160 kts 97°
2026-05-08 00:25 12.17702 -68.83082 7125 ft 160 kts 97°
2026-05-08 00:25 12.17577 -68.81943 7006 ft 161 kts 97°
2026-05-08 00:26 12.17233 -68.80871 6890 ft 161 kts 118°
2026-05-08 00:26 12.16906 -68.79803 6773 ft 159 kts 99°
2026-05-08 00:26 12.16748 -68.78694 6665 ft 157 kts 99°
2026-05-08 00:26 12.16598 -68.77566 6547 ft 159 kts 96°
2026-05-08 00:27 12.16504 -68.76445 6433 ft 158 kts 96°
2026-05-08 00:27 12.16406 -68.75321 6314 ft 159 kts 96°
2026-05-08 00:27 12.16301 -68.74209 6194 ft 159 kts 96°
2026-05-08 00:27 12.16193 -68.73086 6073 ft 157 kts 96°
2026-05-08 00:28 12.16088 -68.71981 5952 ft 156 kts 96°
2026-05-08 00:28 12.15982 -68.70878 5832 ft 156 kts 96°
2026-05-08 00:28 12.15876 -68.69759 5706 ft 159 kts 96°
2026-05-08 00:28 12.15767 -68.68636 5589 ft 158 kts 96°
2026-05-08 00:29 12.15661 -68.67521 5470 ft 157 kts 96°
2026-05-08 00:29 12.15554 -68.66417 5354 ft 155 kts 96°
2026-05-08 00:29 12.15450 -68.65316 5224 ft 156 kts 96°
2026-05-08 00:29 12.15343 -68.64211 5111 ft 157 kts 96°
2026-05-08 00:30 12.15237 -68.63109 4998 ft 157 kts 96°
2026-05-08 00:30 12.15130 -68.62002 4883 ft 156 kts 96°
2026-05-08 00:30 12.15024 -68.60896 4768 ft 155 kts 96°
2026-05-08 00:30 12.14918 -68.59801 4645 ft 155 kts 95°
2026-05-08 00:31 12.14813 -68.58707 4522 ft 154 kts 95°
2026-05-08 00:31 12.14709 -68.57609 4400 ft 155 kts 96°
2026-05-08 00:31 12.14601 -68.56509 4279 ft 154 kts 96°
2026-05-08 00:31 12.14497 -68.55420 4156 ft 154 kts 95°
2026-05-08 00:32 12.14393 -68.54356 4043 ft 151 kts 95°
2026-05-08 00:32 12.14291 -68.53282 3919 ft 153 kts 95°
2026-05-08 00:32 12.14186 -68.52199 3795 ft 154 kts 95°
2026-05-08 00:32 12.14080 -68.51105 3676 ft 155 kts 94°
2026-05-08 00:33 12.13974 -68.50011 3557 ft 154 kts 94°
2026-05-08 00:33 12.13870 -68.48919 3440 ft 154 kts 95°
2026-05-08 00:33 12.13763 -68.47833 3327 ft 152 kts 95°
2026-05-08 00:33 12.13665 -68.46755 3207 ft 151 kts 92°
2026-05-08 00:34 12.13645 -68.45674 3084 ft 154 kts 91°
2026-05-08 00:34 12.13610 -68.44579 2962 ft 153 kts 91°
2026-05-08 00:34 12.13574 -68.43510 2841 ft 149 kts 90°
2026-05-08 00:34 12.13544 -68.42452 2659 ft 150 kts 91°
2026-05-08 00:35 12.13511 -68.41392 2470 ft 152 kts 91°
2026-05-08 00:35 12.13479 -68.40299 2269 ft 154 kts 91°
2026-05-08 00:35 12.13447 -68.39195 2070 ft 156 kts 91°
2026-05-08 00:35 12.13413 -68.38083 1867 ft 156 kts 90°
2026-05-08 00:36 12.13383 -68.36970 1663 ft 157 kts 91°
2026-05-08 00:36 12.13345 -68.35917 1452 ft 135 kts 90°
2026-05-08 00:36 12.13321 -68.35033 1280 ft 118 kts 88°
2026-05-08 00:36 12.13305 -68.34226 1129 ft 109 kts 91°
2026-05-08 00:37 12.13285 -68.33457 1010 ft 107 kts 91°
2026-05-08 00:37 12.13261 -68.32716 888 ft 103 kts 89°
2026-05-08 00:37 12.13244 -68.32002 772 ft 95 kts 90°
2026-05-08 00:38 12.13211 -68.30829 553 ft 67 kts 88°
2026-05-08 00:38 12.13201 -68.30377 460 ft 61 kts 90°
2026-05-08 00:38 12.13191 -68.29942 376 ft 61 kts 88°
2026-05-08 00:38 12.13179 -68.29515 310 ft 58 kts 89°
2026-05-08 00:39 12.13172 -68.29110 243 ft 58 kts 92°
2026-05-08 00:39 12.13149 -68.28674 166 ft 64 kts 92°
2026-05-08 00:39 12.13126 -68.28216 86 ft 65 kts 88°
2026-05-08 00:39 12.13108 -68.27768 25 ft 56 kts 90°
2026-05-08 00:40 12.13103 -68.27481 20 ft 20 kts 92°
2026-05-08 00:40 12.13102 -68.27448 20 ft 4 kts 345°
2026-05-08 00:40 12.13135 -68.27490 20 ft 17 kts 339°
2026-05-08 00:40 12.13256 -68.27492 20 ft 14 kts 359°
2026-05-08 00:41 12.13288 -68.27528 20 ft 11 kts 270°
2026-05-08 00:41 12.13290 -68.27624 20 ft 13 kts 271°
2026-05-08 00:41 12.13283 -68.27656 20 ft 0 kts 233°
2026-05-08 00:41 12.13283 -68.27657 20 ft 0 kts 233°
2026-05-08 00:42 12.13283 -68.27656 20 ft 0 kts 233°